Time,TemperatureF,DewpointF,PressureIn,WindDirection,WindDirectionDegrees,WindSpeedMPH,WindSpeedGustMPH,Humidity,HourlyPrecipIn,Conditions,Clouds,dailyrainin,SoftwareType,DateUTC
2013-10-12 00:00:00,53.3,45.9,30.10,North,354,0.0,15.0,76,0.00,,,0.00,Wunderground v.1.15,2013-10-12 04:00:00,
2013-10-12 00:05:00,53.1,46.4,30.11,North,354,1.0,15.0,78,0.00,,,0.00,Wunderground v.1.15,2013-10-12 04:05:00,
2013-10-12 00:10:00,53.0,46.3,30.11,North,354,1.0,1.0,78,0.00,,,0.00,Wunderground v.1.15,2013-10-12 04:10:00,
2013-10-12 00:15:00,53.2,46.2,30.10,North,352,1.0,15.0,77,0.00,,,0.00,Wunderground v.1.15,2013-10-12 04:15:00,
2013-10-12 00:20:00,53.3,46.6,30.11,North,353,0.0,15.0,78,0.00,,,0.00,Wunderground v.1.15,2013-10-12 04:20:00,
2013-10-12 00:30:00,53.1,46.1,30.11,North,353,0.0,15.0,77,0.00,,,0.00,Wunderground v.1.15,2013-10-12 04:30:00,
2013-10-12 00:40:00,53.1,45.7,30.11,North,353,1.0,15.0,76,0.00,,,0.00,Wunderground v.1.15,2013-10-12 04:40:00,
2013-10-12 00:45:00,53.1,45.7,30.11,North,354,0.0,15.0,76,0.00,,,0.00,Wunderground v.1.15,2013-10-12 04:45:00,
2013-10-12 00:50:00,53.2,45.8,30.11,North,354,1.0,1.0,76,0.00,,,0.00,Wunderground v.1.15,2013-10-12 04:50:00,
2013-10-12 00:55:00,53.1,45.7,30.11,North,353,0.0,15.0,76,0.00,,,0.00,Wunderground v.1.15,2013-10-12 04:55:00,
2013-10-12 01:00:00,53.0,45.6,30.11,North,354,0.0,15.0,76,0.00,,,0.00,Wunderground v.1.15,2013-10-12 05:00:00,
2013-10-12 01:10:00,52.6,45.9,30.11,North,354,0.0,15.0,78,0.00,,,0.00,Wunderground v.1.15,2013-10-12 05:10:00,
2013-10-12 01:20:00,52.1,45.4,30.11,North,354,0.0,15.0,78,0.00,,,0.00,Wunderground v.1.15,2013-10-12 05:20:00,
2013-10-12 01:25:00,52.1,45.4,30.11,North,354,0.0,15.0,78,0.00,,,0.00,Wunderground v.1.15,2013-10-12 05:25:00,
2013-10-12 01:35:00,51.9,45.3,30.11,North,354,0.0,15.0,78,0.00,,,0.00,Wunderground v.1.15,2013-10-12 05:35:00,
2013-10-12 01:45:00,51.9,45.3,30.11,North,354,0.0,15.0,78,0.00,,,0.00,Wunderground v.1.15,2013-10-12 05:45:00,
2013-10-12 01:55:00,51.6,45.3,30.12,North,353,0.0,15.0,79,0.00,,,0.00,Wunderground v.1.15,2013-10-12 05:55:00,
2013-10-12 02:05:00,51.6,45.3,30.12,North,353,1.0,15.0,79,0.00,,,0.00,Wunderground v.1.15,2013-10-12 06:05:00,
2013-10-12 02:10:00,51.6,45.6,30.12,North,353,1.0,15.0,80,0.00,,,0.00,Wunderground v.1.15,2013-10-12 06:10:00,
2013-10-12 02:20:00,51.3,45.3,30.12,North,352,0.0,15.0,80,0.00,,,0.00,Wunderground v.1.15,2013-10-12 06:20:00,
2013-10-12 02:25:00,51.2,45.2,30.11,North,352,0.0,15.0,80,0.00,,,0.00,Wunderground v.1.15,2013-10-12 06:25:00,
2013-10-12 02:35:00,51.0,45.0,30.11,North,353,0.0,15.0,80,0.00,,,0.00,Wunderground v.1.15,2013-10-12 06:35:00,
2013-10-12 02:45:00,50.8,44.9,30.11,North,354,0.0,15.0,80,0.00,,,0.00,Wunderground v.1.15,2013-10-12 06:45:00,
2013-10-12 02:50:00,50.8,44.9,30.11,North,354,0.0,15.0,80,0.00,,,0.00,Wunderground v.1.15,2013-10-12 06:50:00,
2013-10-12 03:00:00,51.1,45.5,30.12,North,351,0.0,15.0,81,0.00,,,0.00,Wunderground v.1.15,2013-10-12 07:00:00,
2013-10-12 03:10:00,51.0,46.0,30.12,North,351,1.0,1.0,83,0.00,,,0.00,Wunderground v.1.15,2013-10-12 07:10:00,
2013-10-12 03:20:00,51.4,45.8,30.13,North,349,1.0,15.0,81,0.00,,,0.00,Wunderground v.1.15,2013-10-12 07:20:00,
2013-10-12 03:25:00,51.7,45.7,30.13,North,352,1.0,15.0,80,0.00,,,0.00,Wunderground v.1.15,2013-10-12 07:25:00,
2013-10-12 03:35:00,52.4,45.4,30.13,NNW,336,1.0,15.0,77,0.00,,,0.00,Wunderground v.1.15,2013-10-12 07:35:00,
2013-10-12 03:45:00,52.9,45.9,30.13,NNW,347,1.0,15.0,77,0.00,,,0.00,Wunderground v.1.15,2013-10-12 07:45:00,
2013-10-12 03:55:00,52.5,45.5,30.13,North,349,0.0,15.0,77,0.00,,,0.00,Wunderground v.1.15,2013-10-12 07:55:00,
2013-10-12 04:05:00,52.3,45.3,30.13,NNW,347,1.0,15.0,77,0.00,,,0.00,Wunderground v.1.15,2013-10-12 08:05:00,
2013-10-12 04:10:00,52.2,45.5,30.14,North,349,0.0,15.0,78,0.00,,,0.00,Wunderground v.1.15,2013-10-12 08:10:00,
2013-10-12 04:20:00,52.3,45.6,30.14,NNW,346,1.0,15.0,78,0.00,,,0.00,Wunderground v.1.15,2013-10-12 08:20:00,
2013-10-12 04:25:00,52.3,45.6,30.14,North,350,0.0,15.0,78,0.00,,,0.00,Wunderground v.1.15,2013-10-12 08:25:00,
2013-10-12 04:35:00,52.5,46.2,30.14,North,349,0.0,15.0,79,0.00,,,0.00,Wunderground v.1.15,2013-10-12 08:35:00,
2013-10-12 04:45:00,52.6,46.6,30.14,North,349,0.0,15.0,80,0.00,,,0.00,Wunderground v.1.15,2013-10-12 08:45:00,
2013-10-12 04:55:00,52.7,47.0,30.14,North,349,1.0,15.0,81,0.00,,,0.00,Wunderground v.1.15,2013-10-12 08:55:00,
2013-10-12 05:05:00,53.0,47.3,30.14,North,6,1.0,15.0,81,0.00,,,0.00,Wunderground v.1.15,2013-10-12 09:05:00,
2013-10-12 05:10:00,53.1,47.4,30.14,North,352,1.0,15.0,81,0.00,,,0.00,Wunderground v.1.15,2013-10-12 09:10:00,
2013-10-12 05:20:00,53.7,47.3,30.14,NW,314,1.0,15.0,79,0.00,,,0.00,Wunderground v.1.15,2013-10-12 09:20:00,
2013-10-12 05:30:00,54.1,47.7,30.15,WNW,293,2.0,2.0,79,0.00,,,0.00,Wunderground v.1.15,2013-10-12 09:30:00,
2013-10-12 05:40:00,54.3,47.6,30.14,NE,37,1.0,15.0,78,0.00,,,0.00,Wunderground v.1.15,2013-10-12 09:40:00,
2013-10-12 05:50:00,54.5,47.4,30.15,North,7,1.0,1.0,77,0.00,,,0.00,Wunderground v.1.15,2013-10-12 09:50:00,
2013-10-12 06:05:00,54.3,47.6,30.15,North,349,1.0,15.0,78,0.00,,,0.00,Wunderground v.1.15,2013-10-12 10:05:00,
2013-10-12 06:10:00,54.3,47.6,30.16,NW,322,1.0,1.0,78,0.00,,,0.00,Wunderground v.1.15,2013-10-12 10:10:00,
2013-10-12 06:20:00,54.2,47.5,30.15,NNW,327,1.0,15.0,78,0.00,,,0.00,Wunderground v.1.15,2013-10-12 10:20:00,
2013-10-12 06:30:00,54.1,47.7,30.15,NNW,342,1.0,15.0,79,0.00,,,0.00,Wunderground v.1.15,2013-10-12 10:30:00,
2013-10-12 06:40:00,54.1,48.1,30.16,NW,326,1.0,15.0,80,0.00,,,0.00,Wunderground v.1.15,2013-10-12 10:40:00,
2013-10-12 06:50:00,54.1,48.1,30.16,NNW,332,1.0,15.0,80,0.00,,,0.00,Wunderground v.1.15,2013-10-12 10:50:00,
2013-10-12 07:00:00,54.0,48.3,30.17,NW,312,1.0,15.0,81,0.00,,,0.00,Wunderground v.1.15,2013-10-12 11:00:00,
2013-10-12 07:10:00,53.9,48.2,30.17,WNW,294,1.0,1.0,81,0.00,,,0.00,Wunderground v.1.15,2013-10-12 11:10:00,
2013-10-12 07:20:00,53.9,48.5,30.17,WNW,295,1.0,15.0,82,0.00,,,0.00,Wunderground v.1.15,2013-10-12 11:20:00,
2013-10-12 07:30:00,53.9,48.5,30.17,WNW,300,2.0,15.0,82,0.00,,,0.00,Wunderground v.1.15,2013-10-12 11:30:00,
2013-10-12 07:40:00,54.1,49.1,30.18,NW,316,1.0,15.0,83,0.00,,,0.00,Wunderground v.1.15,2013-10-12 11:40:00,
2013-10-12 07:45:00,54.3,49.2,30.18,NNW,332,1.0,15.0,83,0.00,,,0.00,Wunderground v.1.15,2013-10-12 11:45:00,
2013-10-12 07:55:00,54.8,49.7,30.19,North,355,2.0,15.0,83,0.00,,,0.00,Wunderground v.1.15,2013-10-12 11:55:00,
2013-10-12 08:05:00,55.4,50.0,30.19,NW,325,1.0,15.0,82,0.00,,,0.00,Wunderground v.1.15,2013-10-12 12:05:00,
2013-10-12 08:10:00,55.7,50.3,30.19,NW,311,1.0,15.0,82,0.00,,,0.00,Wunderground v.1.15,2013-10-12 12:10:00,
2013-10-12 08:20:00,56.3,50.9,30.19,NE,54,2.0,15.0,82,0.00,,,0.00,Wunderground v.1.15,2013-10-12 12:20:00,
2013-10-12 08:25:00,56.7,51.3,30.19,ENE,58,3.0,15.0,82,0.00,,,0.00,Wunderground v.1.15,2013-10-12 12:25:00,
2013-10-12 08:35:00,57.1,51.3,30.20,North,354,2.0,15.0,81,0.00,,,0.00,Wunderground v.1.15,2013-10-12 12:35:00,
2013-10-12 08:45:00,57.4,51.6,30.19,North,349,2.0,15.0,81,0.00,,,0.00,Wunderground v.1.15,2013-10-12 12:45:00,
2013-10-12 08:55:00,57.0,51.6,30.19,North,359,2.0,15.0,82,0.00,,,0.00,Wunderground v.1.15,2013-10-12 12:55:00,
2013-10-12 09:05:00,57.1,52.0,30.19,WNW,300,2.0,15.0,83,0.00,,,0.00,Wunderground v.1.15,2013-10-12 13:05:00,
2013-10-12 09:10:00,57.5,52.4,30.19,NNW,327,3.0,3.0,83,0.00,,,0.00,Wunderground v.1.15,2013-10-12 13:10:00,
2013-10-12 09:20:00,58.7,52.9,30.20,NNE,31,3.0,15.0,81,0.00,,,0.00,Wunderground v.1.15,2013-10-12 13:20:00,
2013-10-12 09:25:00,59.1,53.3,30.20,NNE,27,4.0,15.0,81,0.00,,,0.00,Wunderground v.1.15,2013-10-12 13:25:00,
2013-10-12 09:35:00,59.6,53.1,30.20,North,349,4.0,15.0,79,0.00,,,0.00,Wunderground v.1.15,2013-10-12 13:35:00,
2013-10-12 09:40:00,60.0,53.1,30.20,NW,326,3.0,3.0,78,0.00,,,0.00,Wunderground v.1.15,2013-10-12 13:40:00,
2013-10-12 09:50:00,60.9,53.3,30.20,ENE,63,4.0,15.0,76,0.00,,,0.00,Wunderground v.1.15,2013-10-12 13:50:00,
2013-10-12 10:00:00,61.1,53.1,30.20,North,4,5.0,15.0,75,0.00,,,0.00,Wunderground v.1.15,2013-10-12 14:00:00,
2013-10-12 10:10:00,61.6,53.2,30.20,NW,322,5.0,5.0,74,0.00,,,0.00,Wunderground v.1.15,2013-10-12 14:10:00,
2013-10-12 10:20:00,62.0,53.6,30.21,NNE,32,5.0,5.0,74,0.00,,,0.00,Wunderground v.1.15,2013-10-12 14:20:00,
2013-10-12 10:25:00,62.3,53.9,30.21,North,5,5.0,6.0,74,0.00,,,0.00,Wunderground v.1.15,2013-10-12 14:25:00,
2013-10-12 10:35:00,62.5,53.3,30.21,NE,47,5.0,15.0,72,0.00,,,0.00,Wunderground v.1.15,2013-10-12 14:35:00,
2013-10-12 10:45:00,62.7,53.5,30.22,ENE,61,6.0,15.0,72,0.00,,,0.00,Wunderground v.1.15,2013-10-12 14:45:00,
2013-10-12 10:55:00,63.3,53.7,30.21,North,358,5.0,15.0,71,0.00,,,0.00,Wunderground v.1.15,2013-10-12 14:55:00,
2013-10-12 11:00:00,63.6,54.0,30.22,North,359,5.0,15.0,71,0.00,,,0.00,Wunderground v.1.15,2013-10-12 15:00:00,
2013-10-12 11:10:00,64.0,54.4,30.22,NNE,25,5.0,15.0,71,0.00,,,0.00,Wunderground v.1.15,2013-10-12 15:10:00,
2013-10-12 11:20:00,64.3,54.3,30.22,North,9,6.0,15.0,70,0.00,,,0.00,Wunderground v.1.15,2013-10-12 15:20:00,
2013-10-12 11:25:00,64.6,54.6,30.22,NE,51,5.0,15.0,70,0.00,,,0.00,Wunderground v.1.15,2013-10-12 15:25:00,
2013-10-12 11:40:00,65.0,55.0,30.22,NE,54,5.0,5.0,70,0.00,,,0.00,Wunderground v.1.15,2013-10-12 15:40:00,
2013-10-12 11:50:00,65.2,55.2,30.22,ENE,66,6.0,15.0,70,0.00,,,0.00,Wunderground v.1.15,2013-10-12 15:50:00,
2013-10-12 12:00:00,65.6,55.5,30.22,NW,321,6.0,6.0,70,0.00,,,0.00,Wunderground v.1.15,2013-10-12 16:00:00,
2013-10-12 12:10:00,65.9,55.8,30.22,NE,42,6.0,6.0,70,0.00,,,0.00,Wunderground v.1.15,2013-10-12 16:10:00,
2013-10-12 12:20:00,66.6,56.1,30.22,NW,326,5.0,5.0,69,0.00,,,0.00,Wunderground v.1.15,2013-10-12 16:20:00,
2013-10-12 12:25:00,66.6,56.5,30.22,NNE,22,5.0,15.0,70,0.00,,,0.00,Wunderground v.1.15,2013-10-12 16:25:00,
2013-10-12 12:30:00,66.8,56.7,30.22,NE,49,5.0,5.0,70,0.00,,,0.00,Wunderground v.1.15,2013-10-12 16:30:00,
2013-10-12 12:40:00,67.6,56.7,30.22,NNE,12,4.0,15.0,68,0.00,,,0.00,Wunderground v.1.15,2013-10-12 16:40:00,
2013-10-12 12:45:00,68.1,56.7,30.22,NE,44,4.0,15.0,67,0.00,,,0.00,Wunderground v.1.15,2013-10-12 16:45:00,
2013-10-12 12:50:00,68.1,56.7,30.21,North,3,5.0,15.0,67,0.00,,,0.00,Wunderground v.1.15,2013-10-12 16:50:00,
2013-10-12 13:00:00,68.5,55.8,30.21,NE,41,6.0,6.0,64,0.00,,,0.00,Wunderground v.1.15,2013-10-12 17:00:00,
2013-10-12 13:05:00,68.6,55.9,30.21,ENE,59,6.0,15.0,64,0.00,,,0.00,Wunderground v.1.15,2013-10-12 17:05:00,
2013-10-12 13:10:00,68.7,56.0,30.21,North,3,6.0,6.0,64,0.00,,,0.00,Wunderground v.1.15,2013-10-12 17:10:00,
2013-10-12 13:20:00,69.4,56.7,30.21,NNE,25,5.0,5.0,64,0.00,,,0.00,Wunderground v.1.15,2013-10-12 17:20:00,
2013-10-12 13:25:00,69.4,57.1,30.21,NW,326,5.0,15.0,65,0.00,,,0.00,Wunderground v.1.15,2013-10-12 17:25:00,
2013-10-12 13:35:00,69.4,55.8,30.21,ENE,74,6.0,15.0,62,0.00,,,0.00,Wunderground v.1.15,2013-10-12 17:35:00,
2013-10-12 13:45:00,69.4,56.3,30.21,NNE,29,5.0,15.0,63,0.00,,,0.00,Wunderground v.1.15,2013-10-12 17:45:00,
2013-10-12 13:55:00,68.9,56.2,30.21,East,89,6.0,15.0,64,0.00,,,0.00,Wunderground v.1.15,2013-10-12 17:55:00,
2013-10-12 14:05:00,68.3,56.1,30.22,NE,39,5.0,15.0,65,0.00,,,0.00,Wunderground v.1.15,2013-10-12 18:05:00,
2013-10-12 14:15:00,68.0,56.2,30.22,North,1,5.0,15.0,66,0.00,,,0.00,Wunderground v.1.15,2013-10-12 18:15:00,
2013-10-12 14:25:00,67.5,57.4,30.22,North,349,6.0,15.0,70,0.00,,,0.00,Wunderground v.1.15,2013-10-12 18:25:00,
2013-10-12 14:35:00,66.8,57.1,30.22,NNE,18,5.0,8.0,71,0.00,,,0.00,Wunderground v.1.15,2013-10-12 18:35:00,
2013-10-12 14:40:00,66.6,57.3,30.23,North,354,6.0,15.0,72,0.00,,,0.00,Wunderground v.1.15,2013-10-12 18:40:00,
2013-10-12 14:50:00,66.1,56.8,30.23,NNE,25,5.0,15.0,72,0.00,,,0.00,Wunderground v.1.15,2013-10-12 18:50:00,
2013-10-12 14:55:00,66.2,57.3,30.23,NW,326,5.0,15.0,73,0.00,,,0.00,Wunderground v.1.15,2013-10-12 18:55:00,
2013-10-12 15:05:00,66.0,56.7,30.23,NNE,31,5.0,15.0,72,0.00,,,0.00,Wunderground v.1.15,2013-10-12 19:05:00,
2013-10-12 15:10:00,65.8,56.9,30.23,NE,47,5.0,15.0,73,0.00,,,0.00,Wunderground v.1.15,2013-10-12 19:10:00,
2013-10-12 15:20:00,65.9,57.0,30.23,NE,49,6.0,15.0,73,0.00,,,0.00,Wunderground v.1.15,2013-10-12 19:20:00,
2013-10-12 15:25:00,65.6,57.1,30.23,WNW,297,6.0,15.0,74,0.00,,,0.00,Wunderground v.1.15,2013-10-12 19:25:00,
2013-10-12 15:35:00,65.7,56.4,30.23,NW,318,5.0,15.0,72,0.00,,,0.00,Wunderground v.1.15,2013-10-12 19:35:00,
2013-10-12 15:45:00,65.0,56.5,30.24,North,352,5.0,15.0,74,0.00,,,0.00,Wunderground v.1.15,2013-10-12 19:45:00,
2013-10-12 15:55:00,64.0,56.3,30.24,NE,39,5.0,15.0,76,0.00,,,0.00,Wunderground v.1.15,2013-10-12 19:55:00,
2013-10-12 16:05:00,64.0,55.9,30.24,NNW,340,4.0,15.0,75,0.00,,,0.00,Wunderground v.1.15,2013-10-12 20:05:00,
2013-10-12 16:10:00,64.3,56.2,30.25,NE,43,4.0,4.0,75,0.00,,,0.00,Wunderground v.1.15,2013-10-12 20:10:00,
2013-10-12 16:20:00,63.4,56.1,30.25,NE,40,5.0,5.0,77,0.00,,,0.00,Wunderground v.1.15,2013-10-12 20:20:00,
2013-10-12 16:25:00,63.0,56.0,30.25,NE,50,4.0,15.0,78,0.00,,,0.00,Wunderground v.1.15,2013-10-12 20:25:00,
2013-10-12 16:35:00,62.7,56.1,30.26,NE,43,3.0,5.0,79,0.00,,,0.00,Wunderground v.1.15,2013-10-12 20:35:00,
2013-10-12 16:40:00,62.7,55.4,30.26,NE,53,4.0,4.0,77,0.00,,,0.00,Wunderground v.1.15,2013-10-12 20:40:00,
2013-10-12 16:50:00,62.4,55.8,30.26,NE,34,4.0,15.0,79,0.00,,,0.00,Wunderground v.1.15,2013-10-12 20:50:00,
2013-10-12 17:00:00,61.7,55.8,30.26,NNE,25,4.0,4.0,81,0.00,,,0.00,Wunderground v.1.15,2013-10-12 21:00:00,
2013-10-12 17:10:00,61.5,55.6,30.26,NE,41,3.0,15.0,81,0.00,,,0.00,Wunderground v.1.15,2013-10-12 21:10:00,
2013-10-12 17:20:00,61.5,55.6,30.26,North,6,4.0,4.0,81,0.00,,,0.00,Wunderground v.1.15,2013-10-12 21:20:00,
2013-10-12 17:30:00,61.3,55.4,30.27,North,359,3.0,15.0,81,0.00,,,0.00,Wunderground v.1.15,2013-10-12 21:30:00,
2013-10-12 17:40:00,61.0,55.1,30.27,NE,53,3.0,15.0,81,0.00,,,0.00,Wunderground v.1.15,2013-10-12 21:40:00,
2013-10-12 17:50:00,60.7,54.8,30.27,ENE,74,4.0,4.0,81,0.00,,,0.00,Wunderground v.1.15,2013-10-12 21:50:00,
2013-10-12 18:00:00,60.4,54.5,30.27,NW,318,4.0,4.0,81,0.00,,,0.00,Wunderground v.1.15,2013-10-12 22:00:00,
2013-10-12 18:10:00,60.3,54.4,30.27,NNE,12,2.0,15.0,81,0.00,,,0.00,Wunderground v.1.15,2013-10-12 22:10:00,
2013-10-12 18:20:00,59.9,54.4,30.28,ENE,57,3.0,3.0,82,0.00,,,0.00,Wunderground v.1.15,2013-10-12 22:20:00,
2013-10-12 18:30:00,59.7,54.5,30.28,ESE,110,2.0,15.0,83,0.00,,,0.00,Wunderground v.1.15,2013-10-12 22:30:00,
2013-10-12 18:40:00,59.5,54.3,30.28,NW,326,4.0,4.0,83,0.00,,,0.00,Wunderground v.1.15,2013-10-12 22:40:00,
2013-10-12 18:50:00,59.1,54.3,30.28,NE,42,3.0,3.0,84,0.00,,,0.00,Wunderground v.1.15,2013-10-12 22:50:00,
2013-10-12 19:00:00,59.0,54.2,30.29,North,4,3.0,15.0,84,0.00,,,0.00,Wunderground v.1.15,2013-10-12 23:00:00,
2013-10-12 19:10:00,58.8,54.0,30.29,NE,42,3.0,3.0,84,0.00,,,0.00,Wunderground v.1.15,2013-10-12 23:10:00,
2013-10-12 19:20:00,58.5,53.7,30.29,East,79,2.0,15.0,84,0.00,,,0.00,Wunderground v.1.15,2013-10-12 23:20:00,
2013-10-12 19:30:00,58.2,53.7,30.30,NE,49,2.0,15.0,85,0.00,,,0.00,Wunderground v.1.15,2013-10-12 23:30:00,
2013-10-12 19:40:00,58.0,53.5,30.30,NE,39,3.0,3.0,85,0.00,,,0.00,Wunderground v.1.15,2013-10-12 23:40:00,
2013-10-12 19:45:00,58.0,53.5,30.30,NNW,340,2.0,15.0,85,0.00,,,0.00,Wunderground v.1.15,2013-10-12 23:45:00,
2013-10-12 19:55:00,57.8,53.3,30.30,NE,38,4.0,15.0,85,0.00,,,0.00,Wunderground v.1.15,2013-10-12 23:55:00,
2013-10-12 20:00:00,57.7,53.5,30.30,NNW,346,3.0,3.0,86,0.00,,,0.00,Wunderground v.1.15,2013-10-13 00:00:00,
2013-10-12 20:10:00,57.5,53.0,30.30,NNE,27,2.0,15.0,85,0.00,,,0.00,Wunderground v.1.15,2013-10-13 00:10:00,
2013-10-12 20:20:00,57.2,52.7,30.30,NNW,334,2.0,15.0,85,0.00,,,0.00,Wunderground v.1.15,2013-10-13 00:20:00,
2013-10-12 20:25:00,57.2,53.0,30.30,North,8,2.0,15.0,86,0.00,,,0.00,Wunderground v.1.15,2013-10-13 00:25:00,
2013-10-12 20:35:00,56.9,52.8,30.31,NE,36,3.0,15.0,86,0.00,,,0.00,Wunderground v.1.15,2013-10-13 00:35:00,
2013-10-12 20:45:00,56.7,52.6,30.31,North,7,3.0,15.0,86,0.00,,,0.00,Wunderground v.1.15,2013-10-13 00:45:00,
2013-10-12 20:55:00,56.5,52.4,30.31,NNE,15,3.0,15.0,86,0.00,,,0.00,Wunderground v.1.15,2013-10-13 00:55:00,
2013-10-12 21:05:00,56.4,52.3,30.31,NNW,345,3.0,15.0,86,0.00,,,0.00,Wunderground v.1.15,2013-10-13 01:05:00,
2013-10-12 21:10:00,56.4,52.3,30.31,North,8,3.0,3.0,86,0.00,,,0.00,Wunderground v.1.15,2013-10-13 01:10:00,
2013-10-12 21:20:00,56.2,52.1,30.32,North,352,2.0,15.0,86,0.00,,,0.00,Wunderground v.1.15,2013-10-13 01:20:00,
2013-10-12 21:30:00,56.2,52.4,30.32,NW,316,2.0,15.0,87,0.00,,,0.00,Wunderground v.1.15,2013-10-13 01:30:00,
2013-10-12 21:35:00,56.2,52.1,30.32,NE,41,2.0,15.0,86,0.00,,,0.00,Wunderground v.1.15,2013-10-13 01:35:00,
2013-10-12 21:45:00,56.1,52.0,30.32,NE,34,3.0,4.0,86,0.00,,,0.00,Wunderground v.1.15,2013-10-13 01:45:00,
2013-10-12 21:55:00,56.0,51.9,30.32,NNW,340,1.0,15.0,86,0.00,,,0.00,Wunderground v.1.15,2013-10-13 01:55:00,
2013-10-12 22:05:00,55.9,51.8,30.32,NE,51,2.0,15.0,86,0.00,,,0.00,Wunderground v.1.15,2013-10-13 02:05:00,
2013-10-12 22:15:00,55.9,51.8,30.32,East,88,3.0,15.0,86,0.00,,,0.00,Wunderground v.1.15,2013-10-13 02:15:00,
2013-10-12 22:25:00,55.8,51.7,30.33,NE,48,2.0,15.0,86,0.00,,,0.00,Wunderground v.1.15,2013-10-13 02:25:00,
2013-10-12 22:35:00,55.7,51.6,30.33,NE,40,2.0,15.0,86,0.00,,,0.00,Wunderground v.1.15,2013-10-13 02:35:00,
2013-10-12 22:45:00,55.5,51.7,30.33,East,82,1.0,15.0,87,0.00,,,0.00,Wunderground v.1.15,2013-10-13 02:45:00,
2013-10-12 22:55:00,55.4,51.6,30.33,North,357,1.0,15.0,87,0.00,,,0.00,Wunderground v.1.15,2013-10-13 02:55:00,
2013-10-12 23:05:00,55.3,51.5,30.34,WSW,250,1.0,15.0,87,0.00,,,0.00,Wunderground v.1.15,2013-10-13 03:05:00,
2013-10-12 23:10:00,55.3,51.5,30.33,North,5,2.0,15.0,87,0.00,,,0.00,Wunderground v.1.15,2013-10-13 03:10:00,
2013-10-12 23:20:00,55.2,51.4,30.34,North,6,1.0,1.0,87,0.00,,,0.00,Wunderground v.1.15,2013-10-13 03:20:00,
2013-10-12 23:25:00,55.1,51.0,30.34,WNW,293,1.0,15.0,86,0.00,,,0.00,Wunderground v.1.15,2013-10-13 03:25:00,
2013-10-12 23:35:00,55.0,50.6,30.34,NE,43,2.0,15.0,85,0.00,,,0.00,Wunderground v.1.15,2013-10-13 03:35:00,
2013-10-12 23:40:00,55.0,50.6,30.34,NE,44,2.0,2.0,85,0.00,,,0.00,Wunderground v.1.15,2013-10-13 03:40:00,
2013-10-12 23:50:00,54.9,50.8,30.34,NE,41,1.0,15.0,86,0.00,,,0.00,Wunderground v.1.15,2013-10-13 03:50:00,
2013-10-12 23:55:00,54.8,50.7,30.34,NE,34,2.0,15.0,86,0.00,,,0.00,Wunderground v.1.15,2013-10-13 03:55:00,